|
Cosmos 1220 - Orbit
|
Palomar Mountain Lodge;
21:32:19
| Home | Info | Passes |
|
View from above orbital plane
|
View from above satellite
|
Ground track
|
The orbit data is extracted from the following two-line orbital elements,
1 12054U 80089A 13144.83471610 .00024195 00000-0 34279-3 0 2655
2 12054 064.9601 249.6537 0045483 277.9623 228.5726 15.55216567688609
| Epoch (UTC): | 24 May 2013 20:01:59 |
| Eccentricity: | 0.0045483 |
| inclination: | 64.9601° |
| perigee height: | 370 km |
| apogee height: | 432 km |
| right ascension of ascending node: | 249.6537° |
| argument of perigee: | 277.9623° |
| revolutions per day: | 15.55216567 |
| mean anomaly at epoch: | 228.5726° |
| orbit number at epoch: | 68860 |
The dashed part of the orbit path shows where the satellite is in the earth's shadow,
|
|